Orbital Elements at Epoch 2459200.5 (2020-Dec-17.0) TDB
Reference: JPL 19 (heliocentric ecliptic J2000)
Element | Value | Uncertainty (1-sigma) | Units |
e | .06247218068391339 | 8.987e-08 | |
a | 2.895149399698578 | 1.918e-08 | au |
q | 2.714283103293685 | 2.5011e-07 | au |
i | 2.337885737328845 | 6.0623e-06 | deg |
node | 161.6496540128942 | 0.00010093 | deg |
peri | 173.4050181116117 | 0.00010742 | deg |
M | 121.7584034917559 | 4.0171e-05 | deg |
tp | 2458591.942890219783 (2019-Apr-18.44289022) | 0.00019842 | TDB |
period | 1799.305454392819 4.93 | 1.788e-05 4.895e-08 | d yr |
n | .2000772015230083 | 1.9882e-09 | deg/d |
Q | 3.076015696103471 | 2.0378e-08 | au |
|
| | Orbit Determination Parameters
Additional Information
|